Tracking 25612 objects as of 19-May-2022
HD Live streaming from Space Station
objects crossing your sky now

SCOUT G-1 DEB

Track SCOUT G-1 DEB now!
10-day predictions


NORAD ID: 19559
Int'l Code: 1988-074F
Perigee: 1,027.6 km
Apogee: 1,168.9 km
Inclination: 89.4 °
Period: 107.1 minutes
Semi major axis: 7469 km
RCS: 0.0283 m2 (small)
Launch date: August 25, 1988
Source: United States (US)
Launch site: AIR FORCE WESTERN TEST RANGE (AFWTR)

Note: This is SATELLITE DEBRIS
aabbcc
Your satellite tracking list
Your tracking list is empty




NASA's NSSDC Master Catalog

Two Line Element Set (TLE):
1 19559U 88074F   22138.98214646  .00000193  00000-0  30416-3 0  9992
2 19559  89.3864 132.6222 0094605 248.0419 176.3635 13.44895818653915
Source of the keplerian elements: AFSPC